[[{"header":{"parameterUnit":"m.s-1","parameterCategory":1,"la1":30.2991,"la2":30.254,"lo1":-89.0895,"lo2":-89.0444,"dy":0.0017,"dx":0.0017,"nx":28,"ny":28,"refTime":"2025-08-21T09:00:00:Z","depth":0,"parameterNumber":2,"parameterNumberName":"U-component_of_WINDS"},"data":[0,0,0,0,0,0,0,0,0,0,0,0,0,0,0,0,0,0,0,0,0,0,0,0,0,0,0,0,0,0,0,0,0,0,0,0,0,0,0,0,0,0,0,0,0,0,0,0,0,0,0,0,0,0,0,0,0,0,0.819,0.8191,0,0.8251,0.8252,0.8252,0.8292,0.8292,0.8292,0.8292,0.8351,0.8352,0.8354,0,0,0,0,0,0,0,0,0,0,0,0,0,0.8103,0.8105,0.819,0.8191,0.8192,0.8251,0.8252,0.8253,0.8292,0.8292,0.8292,0.8292,0.8351,0.8352,0.8354,0,0,0,0,0,0,0,0,0,0,0,0,0,0.815,0.8105,0.819,0.8218,0.8221,0.8251,0.8252,0.8253,0.8291,0.8292,0.8292,0.8293,0.835,0.8352,0.8354,0.8359,0,0,0.836,0.8361,0,0,0,0,0,0,0,0,0.8147,0.8153,0.8213,0.8216,0.822,0.8264,0.8243,0.8288,0.8291,0.8265,0.8292,0.8293,0.8322,0.8326,0.8336,0.8362,0.8364,0.836,0.8361,0.8362,0.8363,0,0,0,0,0,0,0,0.8144,0.8151,0.8214,0.8214,0.8218,0.8227,0.8234,0.8252,0.829,0.8267,0.827,0.8277,0.8323,0.8334,0.8338,0.8365,0.836,0.8362,0.8363,0.8364,0.8397,0.8396,0,0,0,0,0,0,0.8137,0.8148,0.8212,0.8216,0.8184,0.8228,0.8236,0.8249,0.829,0.8297,0.8277,0.8279,0.8331,0.8336,0.834,0.8348,0.8362,0.8364,0.8365,0.8397,0.8397,0.8396,0,0,0,0,0,0,0.8135,0.8142,0.821,0.8183,0.8192,0.8229,0.8244,0.8251,0.8262,0.8297,0.8304,0.8281,0.8331,0.8337,0.8354,0.8351,0.8365,0.8367,0.8397,0.8397,0.8396,0.8365,0,0,0,0,0,0,0.8132,0.8141,0.8144,0.8183,0.8193,0.8223,0.8244,0.8251,0.8265,0.8269,0.8303,0.8309,0.8332,0.8351,0.8356,0.8354,0.8368,0.8398,0.8397,0.8397,0.8366,0.8363,0.8361,0,0,0,0,0,0.8129,0.8132,0.8144,0.8152,0.8198,0.8223,0.8229,0.8256,0.8265,0.8268,0.8291,0.8308,0.8351,0.8352,0.8358,0.8357,0.8398,0.8397,0.8397,0.8367,0.8364,0.8361,0,0,0,0,0,0,0.8091,0.8138,0.8152,0.8168,0.8191,0.823,0.8234,0.8252,0.8272,0.8274,0.8306,0.8313,0.8327,0.8344,0.8345,0.8364,0.8376,0.8377,0.8352,0.8349,0.8346,0.8341,0.837,0,0,0,0,0,0.8085,0.8103,0.8142,0.8152,0.8164,0.8197,0.8209,0.8228,0.8253,0.8263,0.8287,0.831,0.8328,0.834,0.8359,0.8369,0.8377,0.8371,0.8368,0.8366,0.8365,0.8372,0.8369,0.8394,0.8394,0.8394,0,0,0.8072,0.81,0.8109,0.8145,0.8166,0.8182,0.8205,0.8221,0.8233,0.8265,0.8282,0.8301,0.8328,0.8342,0.8349,0.8356,0.836,0.8365,0.8362,0.8364,0.837,0.8368,0.8366,0.8393,0.8393,0.8393,0,0,0.8056,0.8079,0.8091,0.8111,0.8142,0.8165,0.8167,0.8203,0.8217,0.8235,0.8259,0.8273,0.8305,0.8323,0.8337,0.8328,0.8345,0.8333,0.8318,0.8324,0.8322,0.8321,0.8317,0.8315,0.8333,0.8333,0.8333,0,0.8036,0.8063,0.8093,0.8109,0.8124,0.8155,0.8165,0.8183,0.8218,0.8227,0.8236,0.8276,0.8296,0.8314,0.8312,0.8322,0.8325,0.8329,0.832,0.8319,0.8318,0.8315,0.8313,0.8331,0.8332,0.8332,0.8332,0,0.8035,0.8054,0.8058,0.8093,0.8109,0.8122,0.8153,0.8165,0.8183,0.8204,0.8221,0.8247,0.8272,0.8278,0.8295,0.8298,0.8302,0.8315,0.8328,0.8313,0.8311,0.831,0.8329,0.833,0.833,0.8331,0,0,0.7997,0.8049,0.805,0.8067,0.8104,0.8118,0.8131,0.8157,0.8166,0.8189,0.8201,0.8227,0.8239,0.8254,0.8274,0.8279,0.827,0.8291,0.8292,0.8286,0.8274,0.8263,0.8261,0.8281,0.8281,0.8281,0.8271,0,0.7986,0.8014,0.8042,0.8059,0.8076,0.8106,0.8118,0.8141,0.8161,0.8177,0.8198,0.8216,0.8231,0.8241,0.8247,0.8269,0.8267,0.8271,0.8291,0.8291,0.8282,0.826,0.8249,0.8239,0.8271,0.827,0.827,0,0.7978,0.8001,0.802,0.8055,0.8064,0.8074,0.8099,0.8115,0.8141,0.8155,0.8173,0.8193,0.8208,0.822,0.824,0.8242,0.8252,0.8264,0.8264,0.8266,0.8279,0.8261,0.8236,0.8234,0.8269,0.8269,0.8269,0,0.7947,0.7983,0.7999,0.8012,0.8054,0.806,0.8078,0.8105,0.8118,0.814,0.8149,0.8172,0.8184,0.82,0.8226,0.8233,0.8243,0.8258,0.8254,0.8253,0.8254,0.8254,0.823,0.8262,0.8262,0.8262,0.8262,0,0.7931,0.7942,0.7986,0.7995,0.8008,0.8039,0.805,0.807,0.8094,0.8107,0.8134,0.8145,0.8179,0.8195,0.8215,0.8228,0.8233,0.8244,0.8249,0.8241,0.824,0.8248,0.8249,0.8262,0.8262,0.8262,0.8262,0,0.7898,0.7929,0.7948,0.7987,0.7996,0.8004,0.8036,0.8046,0.8068,0.8084,0.8089,0.8123,0.8142,0.817,0.8198,0.8211,0.8221,0.823,0.8212,0.8215,0.821,0.8209,0.8189,0.8188,0.8221,0.8221,0.8221,0,0.7886,0.7895,0.7935,0.7946,0.7963,0.7981,0.7996,0.8027,0.8041,0.8072,0.8077,0.8099,0.8118,0.8147,0.8173,0.8194,0.8203,0.8195,0.8206,0.8198,0.8202,0.8201,0.8201,0.8192,0.8191,0.8191,0.819,0,0.7861,0.7876,0.7896,0.7921,0.7938,0.7959,0.7981,0.7988,0.8024,0.8038,0.8059,0.8073,0.8102,0.8123,0.8148,0.8164,0.8183,0.8187,0.8187,0.8178,0.8167,0.8172,0.8204,0.8187,0.8187,0.8187,0.8188,0.8188,0.7838,0.7847,0.7876,0.7898,0.7918,0.7938,0.795,0.7973,0.7992,0.8018,0.8035,0.8055,0.8081,0.8116,0.8132,0.8147,0.8155,0.8155,0.8155,0.8154,0.8151,0.8166,0.8152,0.8152,0.8152,0.8152,0.8152,0,0.7813,0.7834,0.7853,0.7884,0.7901,0.7919,0.7944,0.7956,0.7974,0.7997,0.8016,0.8039,0.8059,0.8087,0.8109,0.8116,0.8125,0.8121,0.812,0.8123,0.8143,0.8141,0.8113,0.8113,0.8113,0.8113,0.8113,0.8113,0.7802,0.7818,0.7836,0.7863,0.7883,0.7904,0.7916,0.7935,0.7954,0.7979,0.7997,0.8015,0.804,0.8064,0.8084,0.8091,0.8097,0.809,0.81,0.8118,0.8122,0.8125,0.8123,0.8092,0.8092,0.8079,0.8079,0.8078]},{"header":{"parameterUnit":"m.s-1","parameterCategory":1,"la1":30.2991,"la2":30.254,"lo1":-89.0895,"lo2":-89.0444,"dy":0.0017,"dx":0.0017,"nx":28,"ny":28,"refTime":"2025-08-21T09:00:00:Z","depth":0,"parameterNumber":3,"parameterNumberName":"V-component_of_WINDS"},"data":[0,0,0,0,0,0,0,0,0,0,0,0,0,0,0,0,0,0,0,0,0,0,0,0,0,0,0,0,0,0,0,0,0,0,0,0,0,0,0,0,0,0,0,0,0,0,0,0,0,0,0,0,0,0,0,0,0,0,1.6312,1.6311,0,1.627,1.627,1.6269,1.6228,1.6227,1.6227,1.6226,1.6182,1.6182,1.6181,0,0,0,0,0,0,0,0,0,0,0,0,0,1.6352,1.6352,1.6312,1.6311,1.6311,1.627,1.627,1.6269,1.6228,1.6227,1.6226,1.6226,1.6182,1.6182,1.6181,0,0,0,0,0,0,0,0,0,0,0,0,0,1.6325,1.6352,1.6312,1.6285,1.6282,1.6271,1.627,1.6269,1.6228,1.6227,1.6226,1.6226,1.6183,1.6182,1.6181,1.6191,0,0,1.6178,1.6177,0,0,0,0,0,0,0,0,1.6327,1.6324,1.629,1.6287,1.6284,1.6253,1.6268,1.6243,1.6228,1.6249,1.6226,1.6225,1.6206,1.6203,1.6198,1.6189,1.6187,1.6178,1.6177,1.6177,1.6176,0,0,0,0,0,0,0,1.6329,1.6325,1.6295,1.6289,1.6286,1.6275,1.627,1.6263,1.6233,1.6247,1.6244,1.6239,1.6205,1.6199,1.6196,1.6187,1.6178,1.6177,1.6176,1.6176,1.6184,1.6184,0,0,0,0,0,0,1.6335,1.6327,1.6296,1.6294,1.6304,1.6275,1.6269,1.6264,1.6233,1.6227,1.624,1.6238,1.6201,1.6197,1.6194,1.6204,1.6177,1.6176,1.6175,1.6183,1.6184,1.6185,0,0,0,0,0,0,1.6336,1.6333,1.6298,1.631,1.6305,1.6275,1.6269,1.6264,1.6257,1.6228,1.6222,1.624,1.62,1.6196,1.6192,1.6202,1.6175,1.6174,1.6182,1.6183,1.6184,1.6223,0,0,0,0,0,0,1.6337,1.6333,1.6338,1.631,1.6304,1.6297,1.627,1.6263,1.6256,1.6252,1.6226,1.622,1.6199,1.6194,1.6191,1.62,1.6174,1.6181,1.6182,1.6184,1.6221,1.6225,1.6229,0,0,0,0,0,1.6339,1.635,1.6338,1.6335,1.6309,1.6298,1.6294,1.627,1.6257,1.626,1.6241,1.6221,1.6201,1.6194,1.6191,1.6199,1.618,1.6182,1.6184,1.6219,1.6224,1.6229,0,0,0,0,0,0,1.6379,1.6346,1.6332,1.6335,1.632,1.6291,1.6295,1.6277,1.6265,1.6262,1.6231,1.6226,1.6225,1.6212,1.6204,1.6207,1.6188,1.6189,1.6216,1.6221,1.6225,1.6228,1.6173,0,0,0,0,0,1.6388,1.6383,1.6354,1.6359,1.6352,1.6325,1.6319,1.6302,1.6285,1.6278,1.6258,1.6242,1.6232,1.6226,1.6215,1.6219,1.6212,1.6223,1.6227,1.6231,1.6232,1.6231,1.6236,1.6191,1.6191,1.619,0,0,1.6407,1.6388,1.6387,1.6367,1.6353,1.6347,1.632,1.6315,1.631,1.6277,1.6272,1.6257,1.6237,1.6237,1.6236,1.6225,1.6243,1.6233,1.6236,1.6235,1.6234,1.6238,1.6242,1.6192,1.6192,1.6191,0,0,1.6438,1.6424,1.6426,1.6412,1.6392,1.6374,1.6374,1.6348,1.6337,1.6332,1.6307,1.63,1.6284,1.627,1.626,1.6286,1.6266,1.6283,1.6305,1.6305,1.6309,1.6312,1.6319,1.6322,1.6284,1.6284,1.6284,0,1.6463,1.6454,1.6429,1.6426,1.6417,1.6387,1.6388,1.6376,1.6353,1.6348,1.6337,1.6315,1.6299,1.6294,1.6301,1.6295,1.6293,1.6285,1.631,1.6313,1.6315,1.6322,1.6325,1.6286,1.6286,1.6286,1.6286,0,1.6486,1.648,1.6484,1.6463,1.6455,1.6454,1.6428,1.6422,1.6406,1.6388,1.6383,1.6363,1.6347,1.6345,1.6328,1.6338,1.6332,1.6316,1.6296,1.6322,1.6328,1.6331,1.6289,1.6289,1.6288,1.6288,0,0,1.654,1.6505,1.6507,1.6496,1.6471,1.6466,1.6463,1.6448,1.6443,1.6428,1.6424,1.6411,1.6396,1.6386,1.6367,1.6368,1.6387,1.6351,1.635,1.6358,1.6395,1.6406,1.6409,1.6374,1.6375,1.6375,1.6396,0,1.6566,1.656,1.6537,1.6537,1.6531,1.6502,1.6499,1.6483,1.6467,1.6458,1.644,1.6431,1.6412,1.6406,1.6405,1.6385,1.6394,1.6383,1.6369,1.6369,1.6374,1.6413,1.6424,1.6445,1.6398,1.6398,1.6399,0,1.6595,1.6582,1.6582,1.6556,1.6553,1.6551,1.6534,1.6527,1.6508,1.6496,1.6484,1.6464,1.6458,1.6441,1.6432,1.6425,1.6418,1.6407,1.6407,1.6404,1.6385,1.6409,1.6451,1.6454,1.6402,1.6402,1.6402,0,1.6633,1.6616,1.6613,1.6605,1.6576,1.6575,1.6562,1.6542,1.6534,1.652,1.6514,1.6499,1.6491,1.6479,1.6455,1.6444,1.6448,1.6429,1.6437,1.6437,1.6438,1.6438,1.6478,1.6436,1.6435,1.6435,1.6435,0,1.6663,1.6664,1.6629,1.6628,1.6627,1.6601,1.6601,1.6585,1.6568,1.6562,1.6536,1.6531,1.65,1.649,1.6471,1.6466,1.6463,1.6452,1.6447,1.6453,1.6455,1.6448,1.6445,1.6436,1.6436,1.6436,1.6436,0,1.6705,1.6683,1.6677,1.665,1.6643,1.6644,1.662,1.6616,1.6599,1.6591,1.6588,1.656,1.6548,1.6523,1.6503,1.649,1.6489,1.648,1.6496,1.6492,1.6501,1.65,1.6537,1.654,1.6497,1.6498,1.6498,0,1.6726,1.6725,1.6698,1.6692,1.6681,1.6673,1.6664,1.6638,1.663,1.6608,1.6607,1.6593,1.658,1.6562,1.6539,1.6524,1.6514,1.6528,1.6511,1.6518,1.6512,1.6512,1.6511,1.6531,1.6532,1.6532,1.6532,0,1.6764,1.6752,1.6742,1.6727,1.6718,1.6705,1.6691,1.6687,1.6657,1.665,1.6637,1.6627,1.6608,1.6593,1.6575,1.6561,1.6541,1.6538,1.6539,1.6545,1.6554,1.6548,1.6504,1.6537,1.6537,1.6536,1.6536,1.6536,1.6794,1.6792,1.6773,1.6761,1.6748,1.6735,1.673,1.6712,1.6701,1.6684,1.6669,1.6657,1.6637,1.661,1.6597,1.6587,1.6577,1.6579,1.6579,1.658,1.6582,1.6556,1.6584,1.6583,1.6583,1.6583,1.6583,0,1.683,1.6816,1.6806,1.6787,1.6778,1.6761,1.6744,1.6737,1.6728,1.6711,1.6699,1.6684,1.667,1.6646,1.6629,1.6626,1.6616,1.6622,1.6622,1.6618,1.6592,1.6592,1.663,1.663,1.663,1.663,1.663,1.663,1.6847,1.6843,1.6829,1.6817,1.6803,1.6792,1.6783,1.6771,1.6757,1.6742,1.673,1.6715,1.6695,1.6677,1.6663,1.6656,1.665,1.6659,1.6649,1.6625,1.662,1.6616,1.6616,1.6659,1.6659,1.6676,1.6676,1.6677]}]]